Location: Ingoldesthorpe
(52.8667°N, 0.5167°E)
Time: 05:29:48
(UTC+00:00)

Cosmos 220 Rocket - Pass Details

Date: 19 May 2025
Orbit: 546 x 580 km, 74.0° (Epoch: 13 June)

Event Time Altitude Azimuth Distance (km) Brightness Sun altitude
Exits shadow 21:56:49 17° 181° (S) 1,448 5.4 -12.8°
Maximum altitude 21:59:46 51° 110° (ESE) 697 4.0 -13.0°
Drops below altitude 10° 22:03:43 10° 34° (NE) 1,832 6.9 -13.3°
Sets 22:05:56 0° 29° (NNE) 2,729 7.9 -13.4°
